GW1395 Weather Reports


Display with metric or nautical units.
time (UTC)temp
F
wind
direction
speed
MPH
gust
MPH
rain 1hr
in
rain 24hr
in
rain mn
in
humidity
%
barometer
mb
20260506003023 54 319 1.0 5.0 0.00 0.01 0.01 53 1013.1
20260506001524 54 200 1.0 8.0 0.00 0.01 0.01 53 1013.0
20260506000026 56 287 2.0 8.0 0.00 0.01 0.01 49 1012.9
20260505234515 57 323 3.0 9.0 0.00 0.01 0.01 47 1013.0
20260505233022 58 340 3.0 10.0 0.00 0.01 0.01 46 1012.9
20260505231523 57 352 5.0 11.0 0.00 0.01 0.01 48 1013.0
20260505230037 56 209 2.0 4.0 0.00 0.01 0.01 54 1013.0
20260505224512 54 270 0.0 6.0 0.00 0.01 0.01 57 1013.1
20260505223018 52 315 2.0 9.0 0.00 0.01 0.01 66 1013.6
20260505221524 52 11 5.0 15.0 0.00 0.01 0.01 61 1013.8
20260505220028 53 360 5.0 12.0 0.00 0.01 0.01 57 1013.8
20260505214526 57 309 5.0 10.0 0.00 0.01 0.01 53 1013.6
20260505213024 58 14 5.0 9.0 0.00 0.01 0.01 51 1013.5
20260505211504 59 258 3.0 12.0 0.00 0.01 0.01 50 1013.6
20260505210007 59 318 4.0 11.0 0.00 0.01 0.01 51 1013.6
20260505204509 56 337 3.0 11.0 0.00 0.01 0.01 55 1013.7
20260505203025 56 333 2.0 10.0 0.00 0.01 0.01 56 1013.9
20260505201519 57 320 7.0 13.0 0.00 0.01 0.01 56 1014.0
20260505200006 57 238 5.0 13.0 0.01 0.01 0.01 57 1014.1
20260505194508 55 246 5.0 12.0 0.01 0.01 0.01 61 1013.9
20260505193012 53 238 3.0 8.0 0.01 0.01 0.01 68 1014.3
20260505191519 51 215 2.0 9.0 0.01 0.01 0.01 82 1014.5
20260505190032 53 136 2.0 11.0 0.00 0.00 0.00 70 1014.6
20260505184508 57 242 4.0 9.0 0.00 0.00 0.00 53 1014.6
20260505183009 58 302 4.0 11.0 0.00 0.00 0.00 49 1014.2
20260505181515 58 223 4.0 11.0 0.00 0.00 0.00 50 1014.4
20260505180022 56 207 3.0 10.0 0.00 0.00 0.00 52 1014.4
20260505174524 57 278 3.0 9.0 0.00 0.00 0.00 49 1014.5
20260505173009 54 221 2.0 5.0 0.00 0.00 0.00 53 1014.7
20260505171519 54 343 3.0 4.0 0.00 0.00 0.00 52 1015.1
20260505170020 53 50 0.0 5.0 0.00 0.00 0.00 53 1015.0
20260505164521 52 344 1.0 4.0 0.00 0.00 0.00 55 1015.0
20260505163010 51 332 1.0 4.0 0.00 0.00 0.00 58 1015.1
20260505161510 51 47 0.0 5.0 0.00 0.00 0.00 57 1015.4
20260505153026 50 344 2.0 6.0 0.00 0.00 0.00 56 1015.5
20260505151509 50 338 1.0 6.0 0.00 0.00 0.00 57 1015.5
20260505124516 50 333 1.0 3.0 0.00 0.00 0.00 50 1015.3
20260505123020 50 331 1.0 4.0 0.00 0.00 0.00 48 1015.4
20260505121529 50 344 1.0 3.0 0.00 0.00 0.00 45 1015.4
20260505120053 50 352 1.0 2.0 0.00 0.00 0.00 44 1015.1
20260505114528 50 284 0.0 2.0 0.00 0.00 0.00 43 1015.0
20260505113018 50 340 0.0 2.0 0.00 0.00 0.00 41 1015.1
20260505111525 51 339 1.0 3.0 0.00 0.00 0.00 40 1015.2
20260505101523 53 339 1.0 3.0 0.00 0.00 0.00 34 1014.9
20260505100027 53 344 5.0 10.0 0.00 0.00 0.00 33 1014.9
20260505094526 53 342 1.0 5.0 0.00 0.00 0.00 31 1014.4
20260505093016 53 345 2.0 3.0 0.00 0.00 0.00 36 1014.3
20260505091525 54 325 2.0 6.0 0.00 0.00 0.00 37 1014.5
20260505090037 55 346 3.0 10.0 0.00 0.00 0.00 37 1015.0
20260505084507 55 338 3.0 13.0 0.00 0.00 0.00 37 1015.1
20260505083011 55 302 1.0 9.0 0.00 0.00 0.00 38 1015.2
20260505081518 55 342 2.0 7.0 0.00 0.00 0.00 37 1015.5
20260505080023 56 325 2.0 10.0 0.00 0.00 0.00 36 1015.7
20260505074524 56 330 4.0 8.0 0.00 0.00 0.00 35 1015.5
20260505073024 56 317 6.0 10.0 0.00 0.00 0.00 34 1015.5
20260505071518 57 291 2.0 4.0 0.00 0.00 0.00 34 1015.7
20260505070023 57 267 0.0 7.0 0.00 0.00 0.00 33 1015.6
20260505064536 57 329 4.0 7.0 0.00 0.00 0.00 32 1015.3
20260505063006 58 342 1.0 4.0 0.00 0.00 0.00 32 1015.4
20260505061544 58 119 1.0 9.0 0.00 0.00 0.00 30 1015.6
20260505060019 59 264 1.0 9.0 0.00 0.00 0.00 30 1015.3
20260505054530 59 294 3.0 8.0 0.00 0.00 0.00 29 1015.2
20260505053031 59 243 2.0 12.0 0.00 0.00 0.00 28 1015.1
20260505051508 60 13 5.0 14.0 0.00 0.00 0.00 28 1014.9
20260505041526 61 360 5.0 11.0 0.00 0.00 0.00 28 1014.9
20260505040011 61 346 4.0 13.0 0.00 0.00 0.00 28 1015.1
20260505034519 61 333 3.0 14.0 0.00 0.00 0.00 27 1015.0
20260505033023 62 298 6.0 14.0 0.00 0.00 0.00 27 1014.9
20260505031540 63 300 4.0 13.0 0.00 0.00 0.00 26 1014.7
20260505030028 63 349 6.0 15.0 0.00 0.00 0.00 25 1014.5
20260505024530 64 338 5.0 19.0 0.00 0.00 0.00 24 1014.3
20260505023017 64 344 4.0 15.0 0.00 0.00 0.00 24 1014.3
20260505021527 64 276 2.0 11.0 0.00 0.00 0.00 24 1014.2
20260505020031 64 329 7.0 11.0 0.00 0.00 0.00 24 1014.1
20260505014504 65 337 3.0 13.0 0.00 0.00 0.00 24 1014.1
20260505013003 65 327 5.0 12.0 0.00 0.00 0.00 23 1013.8
20260505011503 65 320 3.0 14.0 0.00 0.00 0.00 22 1013.7
20260505010004 65 322 6.0 15.0 0.00 0.00 0.00 21 1013.6
20260505004503 65 316 7.0 12.0 0.00 0.00 0.00 21 1013.7